Powrót do katalogu

WESTFORD NEEDLES

AktywnyPO
NORAD 2431·DEBRIS·🇺🇸 United States

Wystrzelony May 9, 1963 z Vandenberg Space Force Base

Loading…

Następne Przeloty (najbliższe 24 godziny)

TLE

Starzejące sięSource: Space-Track

Epoka: Sep 6, 2026, 05:37 UTC

1  2431U 63014AC  26249.23409684 -.00000066  00000-0 -29517-1 0  9992
2  2431  87.5339 185.2025 0322695 191.6834 167.6396  8.68504579376746

Śledź WESTFORD NEEDLES w czasie rzeczywistym z AllMySat

Download on the App Store